Weather observations for the past three days for
Muskogee-Davis Regional Airport
Metric (Imperial)
Date Time (cdt) Wind (kph) Vis. (km) Weather Sky Cond. Temperature (ºC) Relative Humidity Wind Chill (°C) Heat Index (°C) Pressure Precipitation (cm)
Air Dwpt 6 hour altimeter (cm) sea level (mb) 1 hr 3 hr 6 hr
Max. Min.
04 12:53 S 13 16.09 Fair CLR 37.2 17.8 37.2 22.8 32% 39 76.12 1013.9
04 11:53 S 24 G 33 16.09 Fair CLR 35 18.9 39% 37 76.17 1014.6
04 10:53 S 17 16.09 Fair CLR 33.9 19.4 42% 36 76.2 1015.0
04 09:53 S 19 G 30 16.09 Fair CLR 31.7 20.6 52% 34 76.2 1015.0
04 08:53 Vrbl 7 16.09 Fair CLR 28.3 21.1 65% 31 76.2 1014.9
04 07:53 SE 6 16.09 Fair CLR 25 20.6 77% 26 76.17 1014.7
04 06:53 SE 6 16.09 Fair CLR 23.3 20 26.7 23.3 82% 76.12 1014.1
04 05:53 SE 6 16.09 Fair CLR 23.3 20 82% 76.12 1013.9
04 04:53 SE 7 16.09 Fair CLR 23.9 20.6 82% 24 76.1 1013.5
04 03:53 SE 7 16.09 Fair CLR 23.9 20 79% 24 76.07 1013.3
04 02:53 SE 7 16.09 Fair CLR 24.4 20 77% 25 76.07 1013.1
04 01:53 SE 6 16.09 Fair CLR 25 20 74% 26 76.07 1013.3
04 00:53 SE 6 16.09 Fair CLR 26.7 19.4 35.6 26.1 64% 28 76.07 1013.1
03 23:53 S 6 16.09 Fair CLR 27.2 18.9 61% 28 76.05 1012.8
03 22:53 S 6 16.09 Fair CLR 27.8 18.9 58% 29 76.02 1012.6
03 21:53 S 6 16.09 Fair CLR 27.8 18.9 58% 29 76.02 1012.5
03 20:53 S 6 16.09 Fair CLR 31.1 18.3 46% 32 75.95 1011.4
03 19:53 S 9 16.09 Fair CLR 33.3 18.3 41% 34 75.9 1010.9
03 18:53 S 13 16.09 Fair CLR 35.6 18.3 37.8 34.4 36% 37 75.87 1010.7
03 17:53 S 13 G 31 16.09 Fair CLR 36.1 18.3 35% 38 75.87 1010.6
03 16:53 S 24 G 37 16.09 A Few Clouds FEW070 37.2 18.9 34% 39 75.9 1010.7
03 15:53 S 20 G 39 16.09 A Few Clouds FEW060 36.7 19.4 36% 39 75.92 1011.2
03 14:53 SE 15 G 41 16.09 A Few Clouds FEW060 36.7 20 38% 40 75.97 1011.9
03 13:53 SE 22 G 37 16.09 Fair CLR 36.1 20 39% 39 76.02 1012.5
03 12:53 S 20 G 35 16.09 Fair CLR 35 20 35 23.3 41% 38 76.07 1013.4
03 11:53 SE 17 G 37 16.09 Fair CLR 34.4 20 43% 37 76.15 1014.3
03 10:53 SE 17 G 35 16.09 Fair CLR 32.2 20.6 50% 35 76.15 1014.4
03 09:53 S 13 16.09 Fair CLR 30.6 20.6 55% 33 76.2 1014.9
03 08:53 SE 13 G 28 16.09 Fair CLR 28.3 20.6 63% 30 76.23 1015.3
03 07:53 SE 9 16.09 Fair CLR 25.6 20 71% 27 76.23 1015.1
03 06:53 SE 7 16.09 Fair CLR 23.3 20 27.8 22.8 82% 76.17 1014.6
03 05:53 S 6 16.09 Fair CLR 23.9 20 79% 24 76.15 1014.4
03 04:53 S 6 16.09 Fair CLR 24.4 20 77% 25 76.15 1014.1
03 03:53 SE 6 16.09 Fair CLR 25 19.4 71% 26 76.12 1013.9
03 02:53 S 6 16.09 Fair CLR 25.6 19.4 69% 27 76.12 1013.7
03 01:53 SE 7 16.09 Fair CLR 27.2 19.4 62% 29 76.1 1013.5
03 00:53 SE 7 16.09 Fair CLR 27.8 18.9 37.2 27.8 58% 29 76.1 1013.5
02 23:53 S 7 16.09 Fair CLR 29.4 18.3 51% 30 76.07 1013.2
02 22:53 S 9 16.09 Fair CLR 30.6 18.3 48% 32 76.07 1013.2
02 21:53 S 7 16.09 Fair CLR 31.1 17.8 45% 32 76.05 1012.8
02 20:53 SE 9 16.09 Fair CLR 32.2 17.8 42% 33 76 1012.1
02 19:53 SE 9 16.09 Fair CLR 34.4 17.8 37% 35 75.95 1011.4
02 18:53 E 19 16.09 Fair CLR 37.2 17.2 39.4 36.7 31% 38 75.95 1011.4
02 17:53 Calm 16.09 Fair CLR 38.3 17.2 29% 40 75.95 1011.6
02 16:53 S 15 G 30 16.09 A Few Clouds FEW080 38.9 17.8 29% 41 75.97 1012.0
02 15:53 Vrbl 7 16.09 Fair CLR 37.2 17.8 32% 39 76.02 1012.7
02 14:53 Vrbl 9 G 30 16.09 A Few Clouds FEW075 38.9 17.8 29% 41 76.1 1013.3
02 13:53 Vrbl 11 16.09 Fair CLR 38.9 17.8 29% 41 76.17 1014.4
02 12:53 S 15 16.09 Fair CLR 36.7 18.9 36.7 25 35% 39 76.25 1015.4
02 11:53 S 13 16.09 Fair CLR 35 20 41% 38 76.33 1016.5
02 10:53 S 9 16.09 Fair CLR 33.9 20 44% 36 76.35 1016.9
02 09:53 S 15 16.09 Fair CLR 31.7 20 50% 34 76.35 1016.9
02 08:53 S 9 16.09 Fair CLR 30 20.6 57% 32 76.35 1017.0
02 07:53 S 9 16.09 Fair CLR 27.2 20.6 67% 29 76.33 1016.7
02 06:53 S 6 16.09 Fair CLR 25 20 29.4 24.4 74% 26 76.3 1016.2
02 05:53 S 9 16.09 Fair CLR 25 20 74% 26 76.25 1015.7
02 04:53 SE 7 16.09 A Few Clouds FEW110 25 19.4 71% 26 76.25 1015.7
02 03:53 SE 6 16.09 Fair CLR 26.7 19.4 64% 28 76.23 1015.3
02 02:53 S 6 16.09 Fair CLR 27.2 18.9 61% 28 76.23 1015.4
02 01:53 S 7 16.09 Partly Cloudy SCT110 28.3 18.9 57% 30 76.23 1015.3
02 00:53 SE 9 16.09 Mostly Cloudy BKN085 29.4 18.9 37.2 28.3 53% 31 76.23 1015.2
01 23:53 SE 7 16.09 Mostly Cloudy BKN090 BKN110 30 18.9 51% 31 76.2 1014.7
01 22:53 SE 9 16.09 Mostly Cloudy BKN090 28.9 18.3 53% 30 76.15 1014.3
01 21:53 SE 7 16.09 Mostly Cloudy BKN110 30 17.8 48% 31 76.12 1013.7
01 20:53 SE 6 16.09 Mostly Cloudy BKN095 31.1 17.8 45% 32 76.05 1012.8
01 19:53 SE 7 16.09 Fair CLR 34.4 16.7 35% 35 76.02 1012.6
01 18:53 SE 11 16.09 Fair CLR 37.2 16.1 40 36.1 29% 38 76.05 1012.9
01 17:53 SE 13 16.09 Partly Cloudy FEW100 SCT120 37.2 16.1 29% 38 76.07 1013.2
01 16:53 SE 7 16.09 A Few Clouds FEW110 37.2 16.1 29% 38 76.07 1013.3
01 15:53 Calm 16.09 A Few Clouds FEW085 38.3 16.1 27% 39 76.12 1013.7
01 14:53 E 7 16.09 Overcast OVC085 38.3 17.2 29% 40 76.17 1014.5
01 13:53 Calm 16.09 Partly Cloudy SCT080 SCT095 37.2 17.2 31% 38 76.23 1015.3
Date Time (cdt) Wind (kph) Vis. (km) Weather Sky Cond. Air Dwpt Max. Min. Relative Humidity Wind Chill (°C) Heat Index (°C) altimeter (cm) sea level (mb) 1 hr 3 hr 6 hr
6 hour
Temperature (ºC) Pressure Precipitation (cm)